This demonstration page uses our WeatherBlox Daily Observations layout. Learn more.

Left ArrowRight Arrow

Hourly Observations for August 23, 2018

Temp ( °F °C ) Dew Point ( °F °C ) Humidity (%) Winds ( mph kmh ) Pressure ( in mb ) Visibility ( mi km ) Precip ( " mm )
12:59 am 00:59 Mostly Cloudy 74 23.3 69 20.6 85 85 SW 6 9 29.92 1013 10 16 0.00 0.00
1:42 am 01:42 Mostly Cloudy 74 23.3 67 19.4 79 79 NW 17 28 29.94 1014 9 14 0.00 0.00
1:59 am 01:59 Mostly Cloudy 73 22.8 66 18.9 79 79 NNW 17 28 29.93 1014 8 13 0.00 0.00
2:59 am 02:59 Cloudy 72 22.2 64 17.8 76 76 N 10 17 29.93 1014 7 11 0.00 0.00
3:59 am 03:59 Cloudy 73 22.8 64 17.8 74 74 NW 13 20 29.94 1014 8 13 0.00 0.00
4:59 am 04:59 Mostly Cloudy 71 21.7 61 16.1 71 71 NNW 14 22 29.95 1014 8 13 0.00 0.00
5:59 am 05:59 Mostly Cloudy 71 21.7 59 15 66 66 NNW 17 28 29.97 1015 9 14 0.00 0.00
6:59 am 06:59 Partly Cloudy 70 21.1 59 15 68 68 NNW 15 24 29.99 1016 8 13 0.00 0.00
7:59 am 07:59 Partly Cloudy 70 21.1 59 15 68 68 NNW 15 24 30.02 1017 8 13 0.00 0.00
8:59 am 08:59 Mostly Sunny 71 21.7 60 15.6 68 68 NNW 14 22 30.04 1017 9 14 0.00 0.00
9:59 am 09:59 Mostly Sunny 73 22.8 61 16.1 66 66 NNW 14 22 30.05 1018 9 14 0.00 0.00
10:59 am 10:59 Partly Cloudy 74 23.3 61 16.1 64 64 NNW 14 22 30.07 1018 9 14 0.00 0.00
11:59 am 11:59 Partly Cloudy 75 23.9 61 16.1 62 62 N 10 17 30.07 1018 10 16 0.00 0.00
12:59 pm 12:59 Partly Cloudy 77 25 62 16.7 60 60 N 10 17 30.08 1019 10 16 0.00 0.00
1:59 pm 13:59 Mostly Sunny 79 26.1 61 16.1 54 54 N 9 15 30.08 1019 10 16 0.00 0.00
2:59 pm 14:59 Partly Cloudy 79 26.1 60 15.6 52 52 N 10 17 30.08 1019 10 16 0.00 0.00
3:59 pm 15:59 Partly Cloudy 78 25.6 59 15 52 52 NNE 10 17 30.06 1018 10 16 0.00 0.00
4:59 pm 16:59 Partly Cloudy 78 25.6 58 14.4 50 50 NNE 14 22 30.07 1018 10 16 0.00 0.00
5:59 pm 17:59 Mostly Sunny 77 25 59 15 54 54 NNE 12 19 30.08 1019 10 16 0.00 0.00
6:59 pm 18:59 Mostly Sunny 76 24.4 57 13.9 52 52 NNE 12 19 30.09 1019 10 16 0.00 0.00
7:59 pm 19:59 Mostly Clear 74 23.3 53 11.7 48 48 N 13 20 30.11 1020 10 16 0.00 0.00
8:59 pm 20:59 Mostly Clear 75 23.9 52 11.1 45 45 NNE 12 19 30.13 1020 10 16 0.00 0.00
9:59 pm 21:59 Partly Cloudy 74 23.3 55 12.8 52 52 N 12 19 30.15 1021 10 16 0.00 0.00
10:59 pm 22:59 Partly Cloudy 73 22.8 56 13.3 55 55 VRB 5 7 30.15 1021 10 16 0.00 0.00
11:59 pm 23:59 Mostly Clear 73 22.8 56 13.3 55 55 ENE 6 9 30.15 1021 10 16 0.00 0.00

Powered by AerisWeather